Theta_e
333 333 333 331 332 331 329 329 330 329 330 329 329 331 333 333 335 334 334 335 335 334 334 332 331 332 331 332 332 330 329 331 333 332 332 332 332 328 327 330 333 337 338 337 337 338 338 338 338 339 339 339 339 339 339 339 338 338 338 338 338 338 338 340 340 339 339 338 338 337 337 337 336 335 334 334 333 332 331 330 329 329 329 328 327
332 333 332 331 331 329 328 328 329 328 326 326 327 326 326 326 326 327 329 331 330 331 332 330 328 327 328 329 332 332 331 330 331 332 332 330 331 330 325 326 328 333 335 336 337 337 337 337 337 337 338 338 339 339 339 338 337 337 337 337 337 338 338 338 338 339 339 338 338 337 337 336 336 335 334 333 333 332 330 330 329 328 328 326 325
332 333 332 331 331 330 328 329 329 328 324 325 327 327 326 326 327 325 326 325 325 324 324 323 322 322 322 322 323 324 324 327 329 331 330 329 329 330 326 324 326 329 333 335 335 336 336 336 336 337 337 338 338 338 338 338 337 337 336 337 338 338 338 338 339 338 338 338 337 337 337 336 335 334 333 332 332 331 329 329 328 328 325 325 325
333 333 332 331 330 330 330 330 329 329 325 327 328 328 327 328 328 328 327 326 325 324 324 322 321 322 321 321 322 322 322 322 322 322 324 325 326 327 327 324 324 326 329 333 334 335 335 335 336 336 336 337 337 337 337 337 337 338 338 338 338 339 338 338 339 339 338 338 337 337 336 335 334 334 332 332 331 329 329 328 327 325 325 325 325
333 333 331 332 332 331 331 331 331 331 330 330 329 329 329 328 329 330 328 327 325 324 325 323 322 322 322 322 322 322 322 321 321 321 321 322 324 324 326 325 324 324 325 328 330 333 334 335 335 336 336 336 336 336 338 339 339 339 339 339 339 339 340 339 339 338 338 337 337 337 336 335 333 332 332 331 329 329 328 327 324 324 325 323 322
331 332 332 332 332 332 332 331 331 331 331 331 330 330 330 329 329 329 328 328 326 324 323 321 321 322 322 323 323 323 322 322 320 319 319 320 322 322 324 324 325 324 323 324 325 328 333 335 335 335 336 336 336 339 339 340 339 339 339 340 340 339 339 339 338 338 338 337 336 336 335 334 332 332 331 330 329 328 327 325 324 324 323 322 323
335 333 333 333 332 332 332 331 332 332 331 331 330 330 330 329 329 328 328 328 328 328 325 322 322 322 322 323 323 324 323 322 321 319 319 318 320 320 324 323 323 325 325 323 323 324 328 332 334 334 335 335 337 338 339 340 340 339 340 340 340 339 339 339 338 338 337 337 336 335 334 333 332 331 330 329 328 327 325 324 323 323 323 323 322
335 336 335 332 333 333 333 332 332 331 331 331 331 329 329 329 329 329 326 326 327 327 328 327 326 323 323 323 322 323 323 322 321 320 320 319 317 318 321 322 323 323 323 325 324 324 325 328 333 334 335 335 335 336 337 338 338 339 340 340 340 340 339 339 338 338 337 336 336 335 333 331 330 330 329 328 327 325 324 323 322 323 322 321 321
336 337 335 334 333 333 333 333 333 331 329 330 330 330 329 329 328 328 328 325 325 326 327 327 328 329 328 324 323 322 323 322 321 320 321 317 316 317 320 321 323 322 323 324 324 325 324 324 328 331 334 332 332 335 335 336 337 338 338 339 340 340 339 339 338 338 337 336 336 334 332 331 330 329 328 327 325 324 323 322 322 322 321 321 320
333 336 334 333 334 333 331 332 332 331 331 331 330 330 330 330 328 328 328 327 326 327 327 328 328 328 325 323 323 322 322 323 324 320 320 318 318 318 320 323 324 324 324 324 324 325 325 323 325 326 326 326 328 332 335 335 336 336 338 338 339 340 339 338 338 338 337 336 335 334 332 331 330 328 328 326 325 323 322 322 321 321 321 320 320
324 328 333 332 332 332 332 333 334 332 330 329 329 330 330 330 329 328 328 328 328 328 328 328 328 327 325 321 319 320 321 322 323 323 323 323 322 323 326 324 325 325 326 326 326 325 323 325 323 324 324 322 324 329 333 333 334 335 337 338 340 340 340 339 339 337 337 336 334 333 332 330 329 327 327 326 324 323 323 321 321 320 320 320 319
321 323 328 330 331 331 331 332 331 331 331 330 330 330 328 328 328 328 327 327 328 328 329 328 327 326 323 323 322 322 321 321 322 323 325 326 325 324 324 324 324 325 326 326 327 326 324 324 323 326 326 323 321 324 328 329 331 334 336 338 340 340 341 340 338 337 336 335 333 333 331 330 328 327 326 325 324 322 322 321 321 320 319 319 318
316 319 320 322 323 325 328 329 331 331 330 330 331 331 330 329 328 327 326 325 325 326 326 327 323 321 322 321 321 321 321 321 321 321 323 324 326 325 323 322 323 323 324 325 324 325 325 324 324 325 325 323 319 318 320 324 324 331 335 337 338 340 340 339 337 336 334 334 333 332 331 329 327 326 326 324 323 322 321 321 320 319 319 318 318
312 313 315 317 318 320 322 325 326 326 327 330 331 329 329 329 328 326 326 325 323 324 325 324 319 319 316 315 317 318 319 319 319 320 323 325 323 323 322 323 322 321 323 323 322 321 318 318 319 319 319 321 323 323 324 323 322 324 329 334 337 339 340 338 336 336 336 333 333 331 330 328 326 325 324 323 322 321 321 319 318 318 318 318 317
308 310 311 313 314 316 318 321 322 323 323 324 325 327 329 328 327 325 323 325 324 326 324 324 318 318 315 313 313 312 316 317 318 318 318 318 319 319 320 319 319 318 318 317 315 314 315 316 316 316 315 316 317 319 321 321 322 326 330 331 332 335 338 337 335 335 334 332 331 329 328 326 324 323 323 322 321 321 319 318 318 318 317 316 316
306 307 308 310 311 312 314 316 317 318 319 321 323 323 324 327 328 326 325 323 323 323 325 324 320 317 312 312 314 313 310 312 315 314 314 314 314 315 317 316 315 313 314 313 312 313 313 314 314 313 313 313 314 314 316 316 320 324 328 331 330 332 333 336 334 334 333 330 327 326 325 324 323 322 321 321 320 319 318 318 317 316 316 315 315
305 305 306 307 308 309 311 313 314 314 316 318 319 320 321 323 323 324 325 324 322 323 324 324 322 321 317 312 310 312 312 312 313 310 313 311 311 312 312 313 312 312 312 311 311 311 311 311 311 310 310 310 311 311 312 313 314 316 322 330 332 332 334 334 334 334 332 330 327 325 324 323 322 322 321 320 319 318 318 317 316 315 315 314 313
303 302 303 305 306 307 308 310 311 311 312 316 316 317 317 319 320 322 322 324 324 322 321 323 324 322 322 319 319 313 312 311 312 305 308 310 308 309 310 312 311 310 310 309 308 308 308 308 308 307 307 307 308 309 310 311 313 315 321 328 332 333 333 333 332 332 330 329 327 324 323 322 321 320 319 319 318 318 317 316 314 314 314 313 312
301 301 301 303 304 305 306 307 309 309 310 312 312 313 315 316 317 319 320 321 322 319 320 321 322 323 323 322 321 319 317 313 311 307 303 306 307 306 306 307 307 307 306 307 306 306 306 306 306 306 306 306 306 307 307 308 310 314 324 331 332 333 332 332 331 330 329 327 325 323 321 320 318 319 318 318 317 316 315 314 314 314 313 312 311
298 299 299 300 302 303 304 305 306 307 308 309 310 312 313 314 315 316 318 319 319 319 319 320 319 319 322 321 321 321 321 320 319 312 308 302 301 304 305 305 304 304 303 303 303 303 303 303 303 303 303 303 304 305 305 305 306 309 317 329 332 332 331 330 329 328 327 325 322 320 319 318 318 317 317 316 315 315 314 313 313 312 311 311 310
296 297 297 298 301 301 302 303 304 305 307 307 308 310 310 311 312 313 314 316 318 319 319 319 320 319 320 320 322 321 321 321 320 317 312 307 302 301 300 302 303 303 303 303 302 303 303 302 303 302 302 302 302 303 304 303 303 306 311 322 327 328 328 327 327 326 324 321 319 318 318 318 317 316 316 315 314 313 313 313 312 311 310 309 308
293 295 295 296 298 300 300 301 303 304 305 306 307 307 308 309 311 312 314 314 315 317 316 319 320 320 320 318 317 317 318 318 318 318 314 312 304 302 301 299 299 299 301 301 301 302 302 303 302 302 302 302 302 303 303 302 302 304 306 313 320 324 325 325 324 323 322 320 319 318 317 316 315 315 314 313 313 313 313 311 310 310 310 309 308
290 293 293 294 296 298 299 300 302 303 303 304 305 306 307 308 310 311 312 313 314 315 315 317 318 318 319 319 318 317 316 314 314 315 312 307 305 304 302 303 302 297 299 300 301 301 301 302 301 301 301 301 301 301 301 302 299 300 303 308 316 322 323 324 323 322 321 320 319 317 316 315 315 314 313 313 312 311 311 310 309 310 309 308 308
287 289 290 292 294 295 297 298 300 301 302 304 305 306 307 308 308 309 310 312 313 312 314 314 315 316 317 318 318 318 318 317 317 317 315 312 310 304 302 301 300 298 298 298 300 300 300 300 300 300 300 300 300 300 300 301 300 297 302 305 309 317 321 322 321 321 320 320 318 316 315 314 314 313 312 312 311 310 310 309 309 308 308 308 307
283 285 287 289 292 293 294 296 298 300 301 302 303 305 306 306 307 308 309 310 311 311 311 312 314 315 315 316 317 317 317 317 316 317 316 314 309 303 302 303 299 296 297 298 297 298 299 298 299 299 299 299 299 298 299 299 299 296 299 303 306 310 316 319 320 320 321 319 317 316 315 314 313 312 311 310 309 309 309 308 307 307 308 307 306
281 283 285 287 289 291 293 294 296 298 300 301 302 303 305 305 306 307 308 309 310 310 311 312 313 314 316 315 315 315 315 315 315 315 311 310 307 304 301 300 300 297 298 297 297 296 297 298 298 298 298 298 298 298 298 297 297 295 297 300 303 306 312 315 318 320 319 318 317 315 315 314 313 311 310 309 309 308 307 307 307 306 307 306 306
280 282 284 285 286 289 291 292 294 295 297 299 301 302 303 304 305 307 307 309 309 309 309 310 310 311 313 315 314 315 315 314 314 313 313 310 308 304 302 297 297 298 296 298 297 297 297 296 298 297 297 297 297 297 297 297 295 295 297 301 301 302 306 309 312 318 319 318 317 316 314 313 312 311 310 309 308 307 306 306 306 306 306 306 306
279 281 282 283 285 287 290 291 292 294 295 296 298 299 301 302 304 305 305 307 307 307 308 309 309 310 311 313 314 314 314 313 313 311 313 311 308 306 305 303 299 296 297 296 296 296 299 295 297 298 297 296 296 295 295 296 296 295 297 299 299 300 302 306 309 313 317 317 316 314 314 312 312 311 310 309 308 307 306 306 305 305 305 305 305
279 280 280 282 284 286 288 289 291 293 294 295 296 298 299 300 302 303 304 306 305 306 307 308 309 309 309 310 311 313 314 313 312 312 312 311 309 308 308 306 305 300 296 295 297 296 297 297 293 296 296 296 294 296 296 295 294 297 298 298 298 298 299 302 306 309 313 315 315 314 313 312 311 310 309 308 307 306 306 305 305 305 304 304 304
277 278 279 280 282 284 286 288 290 291 292 293 295 296 298 299 300 301 302 304 304 305 306 307 308 308 307 308 309 310 311 312 312 311 311 312 310 308 308 309 308 304 301 298 299 299 296 297 296 293 294 294 295 294 294 293 293 296 296 296 296 295 297 299 302 304 307 310 313 313 312 311 310 310 309 307 307 306 305 305 304 303 303 302 302
276 276 277 278 280 282 284 285 288 289 290 292 293 294 296 297 298 299 300 301 301 302 304 305 306 306 306 306 307 308 309 310 311 310 310 311 311 309 308 308 308 308 305 303 299 298 298 295 295 294 293 293 293 292 292 293 293 294 294 294 294 294 294 295 298 300 303 304 307 310 311 310 309 309 309 307 307 306 305 305 304 303 302 301 300
275 275 276 277 279 279 281 284 285 287 288 290 292 293 295 296 297 297 298 299 300 300 301 303 304 305 305 304 305 305 307 308 309 309 310 310 310 310 309 308 308 308 306 304 303 297 296 297 294 293 293 292 292 290 290 291 293 293 293 293 293 293 293 293 295 297 299 301 302 303 305 308 307 308 307 307 305 305 304 303 303 303 301 299 297
274 274 275 276 277 278 279 281 283 284 286 288 289 291 293 294 295 296 297 297 298 299 300 300 302 302 302 302 303 304 305 305 306 307 307 308 309 310 309 308 308 307 306 303 301 292 291 294 293 292 292 292 290 290 289 289 290 291 292 292 292 292 292 292 292 295 296 298 299 299 300 301 303 305 305 304 303 303 304 303 301 299 297 295 295
273 273 274 275 276 277 278 279 281 283 285 286 287 289 292 293 292 293 294 295 296 297 298 298 299 300 300 300 301 302 304 303 303 304 305 306 307 308 308 308 308 307 307 305 298 295 290 291 290 292 291 291 288 290 288 288 288 289 289 291 291 291 290 290 291 293 295 296 297 297 297 298 298 299 300 300 300 299 299 298 296 295 294 293 293
272 273 273 274 275 276 277 278 279 281 283 284 286 287 290 292 290 290 292 293 295 295 296 296 298 298 298 298 298 300 301 300 301 302 303 303 304 305 306 307 308 308 307 307 300 296 292 289 290 289 289 290 289 288 288 289 289 289 289 288 288 289 289 289 289 291 294 294 295 295 295 296 296 296 296 296 296 296 295 295 295 294 293 292 292
270 272 273 273 274 275 275 276 277 279 281 282 284 286 289 290 289 288 290 291 292 294 295 296 296 297 296 296 296 297 298 298 298 300 301 302 302 302 303 303 306 306 305 304 303 297 293 288 288 288 289 289 290 290 289 289 288 288 288 288 288 287 287 288 288 289 291 292 293 293 293 293 293 294 294 294 294 294 294 293 293 291 291 291 291
270 270 271 272 273 273 274 275 276 277 279 280 282 284 288 289 287 287 288 289 290 292 294 295 295 296 296 295 295 295 296 296 296 297 299 298 299 300 301 301 302 303 302 302 300 297 293 290 288 289 289 289 289 289 289 287 287 287 287 287 286 285 285 286 287 288 290 291 291 291 291 291 291 292 292 292 292 292 292 292 290 289 289 289 289
269 270 270 271 271 272 273 274 275 277 278 279 281 283 286 285 284 286 287 288 289 291 292 294 295 295 295 294 294 294 294 294 294 296 296 296 297 297 298 299 298 299 299 298 297 295 294 291 288 286 287 286 286 286 289 288 286 285 286 286 286 285 284 284 285 286 287 287 287 288 289 289 290 290 291 291 291 291 291 291 289 288 288 288 289
268 269 269 270 271 271 272 273 274 275 276 278 280 283 283 283 283 283 285 286 288 289 291 292 294 294 294 294 294 294 293 292 292 292 293 294 295 295 296 296 296 297 295 295 294 294 292 289 287 286 286 286 286 285 287 289 288 286 284 283 283 285 283 284 284 285 287 287 288 288 287 287 287 287 289 290 290 290 290 289 288 287 287 288 288
267 268 268 269 270 271 271 272 273 274 275 277 279 281 281 282 282 282 283 284 286 287 289 291 292 293 293 293 293 292 291 290 290 290 291 292 293 294 295 294 295 295 294 293 293 292 290 288 286 285 285 284 285 285 286 286 284 284 285 284 282 282 282 283 283 283 285 284 283 285 287 287 286 287 288 288 288 288 288 288 287 286 286 286 286
267 267 268 268 269 269 270 271 272 273 274 276 278 279 279 280 281 282 282 282 283 285 287 289 291 292 292 292 292 291 289 288 287 288 289 289 290 291 293 293 293 294 293 292 291 290 289 287 285 285 284 283 283 283 283 282 282 282 283 283 282 282 281 281 281 281 281 282 284 284 284 283 282 283 283 282 285 287 286 286 287 286 285 285 285
266 266 267 268 268 268 269 269 270 272 273 275 277 279 281 280 280 281 281 282 282 284 286 288 290 291 291 291 291 289 288 288 287 288 289 289 289 289 290 292 292 292 292 291 290 289 288 286 285 284 283 282 283 283 282 283 283 283 282 281 280 281 280 280 280 279 280 279 281 281 282 283 282 282 282 282 284 284 284 283 284 285 284 285 285
265 266 266 266 266 268 268 269 269 271 272 273 276 279 280 281 280 280 280 281 282 283 284 287 288 289 290 290 290 289 289 288 289 288 288 289 289 289 289 289 289 291 292 291 289 288 287 287 285 284 284 283 283 283 283 283 282 282 281 281 281 280 278 277 276 279 280 278 279 280 280 281 279 280 280 281 281 282 283 283 287 286 284 284 284
264 265 264 265 266 266 267 268 268 269 270 274 276 278 279 280 281 280 280 280 281 282 283 285 287 288 288 288 289 289 288 287 287 288 288 287 288 288 288 288 289 290 290 291 290 288 287 286 284 284 284 284 283 283 283 283 282 282 282 282 281 280 278 278 278 277 279 279 279 280 279 279 278 279 279 280 281 281 282 283 285 286 284 284 284
264 263 264 264 264 266 266 266 267 268 269 273 275 277 278 279 280 280 279 279 279 280 281 283 285 287 287 287 287 288 288 287 286 287 287 285 286 286 286 286 286 286 288 289 290 289 290 287 286 284 284 284 283 283 284 283 284 282 282 282 281 280 279 279 278 276 278 280 278 279 278 279 278 278 278 279 278 279 280 284 284 286 284 284 284
262 262 263 263 264 264 265 266 266 267 268 271 274 276 277 278 279 280 277 277 277 278 279 281 283 285 287 286 286 286 287 287 285 286 286 285 285 284 284 283 283 283 284 285 286 286 288 289 287 285 285 285 284 284 284 285 283 282 282 281 281 280 279 278 277 277 277 280 278 279 277 277 277 278 277 277 278 278 279 283 285 285 284 283 284
261 261 262 262 263 264 264 265 265 266 267 272 274 275 276 277 278 279 276 276 276 277 278 280 281 284 286 287 286 286 286 287 286 286 284 284 284 284 283 282 282 282 283 283 283 283 284 286 287 286 284 285 284 284 284 285 284 283 283 282 282 279 277 277 276 276 276 277 275 277 275 278 278 276 276 276 278 276 278 281 284 284 283 283 283
261 262 262 262 262 262 263 264 264 264 266 271 272 274 275 276 278 276 275 275 275 276 277 278 280 283 285 286 286 285 285 286 287 288 286 284 282 282 282 281 281 282 283 284 285 284 283 283 283 282 282 283 284 283 283 283 282 282 281 280 279 278 277 276 275 276 274 276 276 275 275 275 275 274 273 275 275 273 275 275 284 284 282 281 281
260 260 260 261 261 262 262 263 263 264 265 268 271 273 274 276 276 274 274 274 275 275 276 278 280 281 283 285 285 285 285 285 287 288 288 286 281 281 281 280 280 281 281 283 285 286 286 286 286 286 287 287 286 286 286 286 283 282 280 279 277 278 277 275 275 275 274 274 274 275 274 273 273 273 272 274 274 273 274 276 278 279 279 279 280
258 259 260 260 261 261 262 262 263 263 264 267 270 272 274 275 275 273 273 274 274 274 275 277 279 280 282 284 285 285 284 284 286 287 288 286 283 282 281 280 280 279 279 280 280 280 283 284 284 285 285 285 285 285 285 285 285 284 281 278 279 279 277 277 275 274 273 273 272 274 272 273 272 273 272 272 273 271 272 272 273 273 276 276 279
258 259 259 259 260 260 261 262 263 263 263 265 269 271 273 274 274 273 273 273 273 273 275 276 278 279 281 283 285 285 285 285 286 287 288 286 284 282 280 280 279 279 279 278 276 276 276 276 276 276 276 277 277 277 279 281 280 278 277 279 280 279 277 277 275 273 271 273 273 274 270 271 270 270 271 264 264 269 272 270 270 270 270 271 273
Wind_Speed
9 8 7 6 6 6 6 6 6 6 7 7 7 8 8 7 7 8 8 7 6 6 5 5 6 5 5 4 4 3 3 3 3 3 3 4 5 6 11 11 10 10 9 8 8 8 8 7 7 8 9 10 10 10 9 9 10 10 9 9 10 10 10 9 8 8 7 6 5 5 6 7 7 8 7 5 5 5 4 4 3 3 4 5 6
7 8 8 7 7 5 5 5 7 6 7 7 7 6 8 7 7 7 8 8 7 7 7 6 6 5 5 5 5 6 6 5 4 5 5 4 4 6 12 11 11 10 10 9 9 9 8 8 9 9 9 10 11 12 12 11 12 10 9 9 10 9 9 9 9 6 7 6 6 6 7 7 9 8 7 6 7 5 4 3 3 4 4 5 5
6 7 8 8 8 8 7 6 7 6 8 7 6 6 6 6 5 5 5 5 6 5 7 6 4 3 3 3 4 4 5 6 6 6 6 6 5 3 7 12 11 10 9 9 10 10 10 9 9 9 10 10 10 11 11 11 10 9 9 9 10 9 9 9 9 9 8 7 7 7 7 9 10 8 7 8 7 6 4 3 4 4 4 4 4
6 7 8 7 7 9 8 8 8 6 8 6 7 6 6 6 6 5 4 4 4 5 4 4 4 4 4 4 3 2 3 3 3 3 4 5 5 5 5 7 11 12 11 11 11 10 10 10 10 10 10 10 11 11 10 10 10 9 10 9 10 10 9 9 9 9 8 8 7 7 9 9 10 9 9 8 8 7 6 5 5 4 4 5 6
5 8 7 7 6 7 7 7 8 7 8 7 7 7 5 5 6 6 6 6 6 5 5 5 4 5 4 4 4 4 4 3 4 5 4 4 3 3 5 6 6 10 12 12 12 11 12 11 11 11 11 11 11 11 10 10 10 10 10 10 10 9 9 8 9 8 7 7 7 9 10 11 10 9 9 8 8 7 6 6 5 5 5 4 4
5 7 6 7 7 6 7 6 6 7 7 9 7 8 7 6 6 7 6 7 7 7 6 6 6 5 6 6 6 6 5 5 5 6 4 4 4 4 3 6 6 6 7 11 12 10 11 12 12 12 11 11 11 10 10 10 10 10 10 11 11 10 9 9 8 7 7 7 8 11 11 11 11 10 9 8 7 6 6 6 6 5 5 4 5
2 3 7 6 7 7 8 6 6 5 6 7 7 7 7 6 6 6 5 6 4 4 7 7 6 6 5 4 6 6 6 6 7 6 6 5 6 4 5 5 4 6 6 5 8 12 13 12 12 12 12 11 11 10 10 11 11 11 11 12 12 11 10 10 9 8 6 8 11 13 13 13 12 10 10 8 6 6 6 6 6 6 5 5 6
4 1 3 3 6 7 7 7 7 7 7 6 6 6 6 6 6 7 6 6 5 3 2 5 6 7 7 6 6 6 6 6 7 7 6 6 5 4 4 4 5 5 6 6 6 7 11 11 11 11 12 11 10 9 8 8 7 5 7 10 11 12 11 10 9 9 8 10 14 14 13 13 12 11 10 8 7 7 7 6 6 5 5 5 6
3 3 2 6 6 6 6 7 5 6 6 6 7 6 6 6 6 7 8 6 6 5 3 4 3 3 5 8 7 7 7 7 6 6 5 6 6 5 5 4 4 5 3 2 3 6 10 13 11 11 10 9 9 9 8 8 8 8 9 9 8 10 11 11 11 10 10 13 15 15 14 13 11 11 10 9 8 8 7 6 6 5 5 5 6
5 6 3 3 4 6 3 4 5 4 5 6 8 7 6 6 6 6 7 7 7 7 6 5 4 4 3 0 3 5 5 2 2 4 6 6 6 7 7 6 5 4 4 4 3 4 3 8 12 11 11 10 9 8 9 9 9 9 10 10 10 11 11 11 11 11 10 15 15 16 15 13 13 12 11 10 9 8 7 6 5 5 5 6 6
12 9 6 3 3 5 6 1 2 0 2 2 3 4 5 5 6 6 4 6 8 8 6 5 5 4 3 2 1 3 1 1 2 2 2 5 7 6 5 6 5 5 5 4 4 3 3 5 5 5 6 10 9 8 9 9 9 10 10 11 11 12 12 13 13 12 12 16 16 17 15 14 14 13 13 11 10 8 7 6 5 5 6 6 5
12 11 8 3 2 2 2 4 2 2 2 4 6 6 7 7 5 5 6 5 5 5 6 6 5 5 5 3 3 3 4 3 3 3 4 3 3 3 4 3 2 2 3 3 3 3 1 2 5 5 2 4 8 8 8 8 9 9 11 12 12 13 14 14 13 13 13 14 16 17 16 16 14 13 13 12 10 8 7 6 6 7 6 6 6
10 7 7 7 9 10 10 8 6 3 4 5 6 8 9 8 8 8 8 6 5 5 5 5 5 4 4 5 4 4 5 4 5 6 6 4 3 2 2 3 2 1 1 1 3 3 3 4 4 4 4 2 1 4 5 6 8 9 11 12 12 13 14 14 8 10 11 13 15 16 16 16 15 14 13 11 10 8 8 8 8 6 6 6 7
9 10 11 12 13 11 9 7 6 4 3 2 4 5 5 7 7 7 7 9 7 8 8 8 6 8 5 3 4 3 5 5 6 7 7 2 0 1 2 1 3 3 3 4 4 4 4 4 3 4 4 4 3 1 1 4 5 8 10 12 12 13 16 14 10 9 11 13 16 16 17 16 15 15 13 11 10 9 9 9 7 7 7 7 7
13 11 10 12 11 8 8 7 7 5 6 7 8 7 6 7 8 8 8 7 7 8 10 11 7 7 4 2 4 4 4 4 1 1 3 3 3 4 3 4 4 4 3 4 4 4 4 4 4 3 3 3 2 2 3 3 4 9 8 9 11 12 13 13 9 10 10 12 16 15 15 15 13 12 12 11 10 10 9 9 8 8 8 7 7
12 11 10 11 11 11 9 8 9 9 8 9 10 9 10 6 5 6 3 4 6 6 9 11 7 9 6 7 4 4 2 7 5 2 3 5 5 4 3 3 4 3 4 4 3 3 4 4 4 4 4 3 3 3 3 3 6 7 10 7 7 9 9 9 10 10 11 17 15 13 12 11 11 10 10 10 10 10 9 9 9 9 9 8 8
12 12 10 11 11 10 9 8 9 10 9 9 8 8 8 8 10 7 3 4 6 5 4 9 9 10 7 4 3 5 6 4 6 1 2 3 4 4 4 3 4 3 3 4 4 4 4 4 4 4 4 4 4 4 3 4 4 5 6 6 7 8 9 8 11 17 21 20 18 15 14 13 13 13 12 10 10 10 10 9 9 9 9 10 9
11 12 12 10 11 10 9 10 10 9 10 8 7 7 8 9 9 7 8 7 3 2 3 3 6 8 8 5 3 2 4 4 7 5 3 3 3 4 4 4 4 4 4 4 4 4 4 3 4 4 4 4 4 4 4 4 4 5 5 5 6 7 9 9 15 21 22 21 18 18 16 15 13 12 11 11 10 10 9 9 9 9 10 10 10
12 12 12 11 10 10 9 9 9 9 9 8 9 9 8 9 9 8 8 7 7 3 3 3 4 5 5 7 7 3 2 7 5 6 3 1 2 2 3 4 5 4 4 3 4 4 3 2 3 3 3 2 3 3 4 4 6 8 8 10 8 9 14 19 19 20 20 19 18 16 15 13 11 11 10 10 9 9 8 9 9 10 11 11 10
12 12 12 12 11 10 9 9 8 9 8 9 9 8 8 7 8 7 6 6 8 8 6 3 3 3 5 9 10 8 6 4 3 7 5 6 4 3 3 4 4 4 4 3 3 3 3 2 2 2 2 2 2 3 3 4 5 6 4 10 16 19 19 20 19 18 17 18 18 16 13 12 12 10 9 9 9 9 10 9 10 10 10 11 11
11 11 12 12 11 10 11 11 11 10 8 8 8 9 10 9 9 9 8 7 6 7 6 6 5 4 5 7 9 9 7 7 5 3 4 4 3 6 4 2 3 3 3 3 3 3 3 2 3 3 2 2 3 4 3 4 3 6 6 9 12 17 18 19 19 19 18 18 16 14 13 13 11 9 9 8 8 9 9 9 9 10 10 11 10
11 12 13 13 12 12 11 11 11 10 9 9 9 9 8 8 8 8 8 8 7 6 7 7 6 6 5 5 4 2 3 6 7 6 2 2 7 8 8 8 7 2 2 2 3 3 3 3 3 2 2 3 4 3 3 4 5 5 6 10 12 14 17 17 19 18 16 15 14 13 12 12 10 9 8 9 9 9 9 9 10 10 11 10 10
11 10 12 14 12 11 11 10 9 9 9 10 10 9 9 8 7 7 6 8 7 7 8 7 5 5 7 5 4 3 3 3 2 4 4 3 4 4 5 5 4 5 2 3 3 2 2 2 2 2 2 3 3 3 3 4 5 7 11 12 7 13 16 18 17 17 16 15 15 13 12 11 10 11 10 9 9 9 9 10 9 9 10 10 10
11 11 12 14 12 11 11 10 9 9 9 8 8 8 8 8 8 7 6 5 5 6 6 7 7 6 5 5 4 4 5 4 5 2 5 4 6 7 7 4 5 3 4 3 3 2 2 1 2 2 2 3 3 3 4 4 5 12 8 12 12 8 13 15 15 15 15 15 14 13 12 11 11 10 8 9 8 9 9 9 9 8 9 10 10
13 13 14 16 12 12 13 11 10 10 9 9 8 9 8 8 8 8 7 8 7 7 7 8 9 7 5 4 4 4 4 3 3 4 3 2 6 6 3 3 3 3 3 4 2 1 1 1 1 2 2 3 3 4 4 4 5 10 9 8 13 12 10 7 13 13 14 14 13 12 11 11 9 9 9 9 9 9 10 8 8 8 8 9 9
13 12 13 14 12 12 11 11 10 10 10 9 9 9 8 7 7 7 8 6 6 7 6 7 7 8 6 5 4 4 3 2 3 5 2 4 5 7 6 3 3 3 2 2 2 2 3 2 3 2 2 3 3 3 4 4 5 9 9 6 9 12 11 10 3 14 15 14 13 12 12 12 12 10 9 8 9 9 9 8 8 8 8 9 9
11 12 13 13 13 13 13 12 11 11 11 10 9 8 8 7 6 6 6 6 6 6 6 7 7 8 7 6 5 5 5 3 1 2 4 1 6 7 8 7 3 3 2 2 2 6 2 2 4 3 4 4 3 2 3 3 5 8 8 5 6 9 12 9 10 10 15 15 13 13 11 11 11 11 10 10 10 9 9 9 9 8 8 8 8
11 12 13 13 13 13 13 12 13 12 11 11 11 9 9 8 7 7 7 6 7 8 7 6 7 7 7 6 5 5 4 3 3 1 2 1 3 5 5 7 8 4 3 3 4 5 5 3 2 2 4 4 4 3 1 3 3 6 6 5 4 5 9 10 10 6 11 13 14 13 12 11 11 11 10 10 10 9 9 9 8 7 7 7 8
10 11 13 13 12 13 13 13 13 12 12 11 11 11 10 9 8 8 8 8 8 8 6 6 6 6 6 6 6 5 4 3 3 3 2 3 4 5 6 7 5 6 4 4 5 6 4 5 4 3 4 4 4 2 2 2 2 3 4 4 4 4 8 10 11 11 7 12 14 14 13 12 12 11 11 11 10 10 9 8 7 6 5 5 7
11 11 12 13 13 13 12 13 12 12 12 11 12 11 10 8 10 9 8 8 8 7 7 7 6 6 6 6 5 5 5 5 4 3 3 4 5 5 6 5 3 6 6 6 4 4 3 2 2 4 4 5 4 3 3 2 3 3 3 3 3 4 8 9 10 11 11 9 7 14 12 12 12 12 11 10 9 9 8 7 6 5 5 4 7
12 14 13 13 13 13 12 12 12 12 12 11 12 11 10 9 9 8 9 9 8 8 7 7 7 6 7 7 7 6 6 6 5 3 3 3 4 5 5 4 4 4 5 6 3 1 3 7 2 3 6 5 5 4 3 1 1 3 3 3 4 6 8 7 10 11 13 12 14 7 11 13 11 12 12 10 9 8 8 6 5 5 5 4 8
11 13 12 13 14 14 13 12 12 12 12 12 12 11 10 9 9 8 9 10 10 9 9 8 7 7 7 8 7 7 7 6 5 4 3 3 3 4 5 5 4 2 1 4 6 4 2 2 5 5 8 8 6 6 4 2 1 3 2 2 3 5 4 5 8 12 12 14 14 13 17 11 6 12 11 10 9 8 7 6 5 6 5 7 10
13 13 13 13 13 13 13 13 13 12 13 13 12 11 10 10 9 9 10 10 10 9 9 10 9 9 8 9 8 8 7 7 5 5 4 3 3 4 4 5 6 4 3 3 4 3 2 2 3 5 7 8 6 6 6 5 4 3 3 1 2 3 4 4 5 9 12 13 13 15 15 15 16 12 10 10 7 7 9 10 8 6 7 9 10
12 13 13 12 12 13 13 13 13 12 12 13 13 12 11 11 10 9 10 11 10 9 9 9 10 8 9 9 9 9 7 7 7 7 5 5 4 4 5 5 6 6 7 6 2 5 5 1 3 4 6 6 5 5 7 7 5 4 3 2 2 3 4 4 5 6 12 12 14 14 14 16 16 15 16 15 13 13 12 9 8 8 9 9 10
11 11 12 12 13 12 12 12 13 12 12 12 12 12 12 11 12 12 11 12 11 10 10 10 9 9 9 10 10 9 8 9 8 7 6 5 4 5 5 4 5 5 6 7 6 5 8 5 4 5 4 5 5 7 6 5 5 5 5 3 3 3 4 4 4 4 9 12 13 13 14 14 14 15 15 15 14 12 10 9 10 9 9 10 10
12 12 12 13 13 13 12 13 12 13 13 12 12 13 12 12 12 13 13 12 12 11 9 9 9 8 8 10 10 10 9 9 9 8 7 6 5 5 5 5 5 5 4 5 6 5 5 7 6 7 5 4 2 6 5 6 6 5 4 4 4 4 4 4 5 4 7 12 12 13 13 13 13 13 13 13 13 11 10 10 10 10 10 10 10
11 12 12 12 12 12 12 13 13 13 13 13 13 13 12 12 13 13 13 13 12 12 11 9 8 8 7 7 9 10 10 10 9 8 7 7 6 5 5 5 5 5 3 5 5 5 7 8 6 4 6 4 2 3 6 8 6 5 5 5 4 4 4 4 4 4 9 12 11 12 11 11 11 12 12 12 12 11 10 10 10 10 10 10 10
12 10 11 11 12 13 12 13 12 12 12 12 12 12 12 13 13 13 13 13 12 12 11 10 9 8 7 6 7 8 9 9 9 9 8 8 6 5 6 4 2 2 3 2 3 4 6 7 9 7 5 6 5 3 4 6 8 7 5 5 6 4 5 4 3 2 2 4 4 5 7 8 10 11 10 11 11 11 11 10 10 10 10 9 10
11 11 11 11 11 11 12 12 12 12 13 12 11 10 11 12 12 13 14 13 13 12 11 12 9 8 7 5 5 5 7 7 8 9 9 8 6 6 6 5 1 1 2 3 4 5 6 7 4 4 6 4 5 7 4 4 4 6 9 7 5 3 3 6 6 2 1 3 5 5 6 5 6 5 9 10 11 11 10 10 10 10 9 9 9
11 11 12 12 11 10 11 11 11 11 11 11 11 10 11 11 11 12 13 13 13 13 13 12 10 7 7 6 5 4 4 5 6 7 7 8 7 7 5 4 1 1 3 3 4 6 7 6 6 7 5 6 5 3 4 5 5 3 5 5 9 7 6 2 2 6 4 4 4 4 5 6 5 7 9 9 10 11 10 8 9 9 9 9 8
9 11 11 11 13 12 10 10 11 10 9 9 8 10 12 12 11 11 13 13 14 13 13 13 11 9 7 6 6 5 5 5 6 6 6 6 6 7 6 3 3 1 2 3 4 5 5 6 6 5 6 6 6 8 9 10 12 10 8 6 5 5 5 5 3 3 1 4 4 4 4 5 5 4 4 4 4 7 7 7 5 8 8 8 9
11 11 11 11 11 11 12 12 10 9 9 8 12 21 18 13 12 10 10 12 12 13 13 12 11 10 8 8 8 10 10 9 6 6 8 8 7 5 5 5 3 3 3 4 5 5 7 7 8 9 8 8 9 10 10 8 5 6 8 8 9 6 6 5 3 1 1 3 4 5 3 3 6 5 4 4 3 3 3 4 3 4 5 7 8
12 11 11 12 11 11 12 12 12 10 9 10 20 20 21 22 15 11 11 11 12 12 12 11 11 11 10 9 8 9 9 7 6 4 6 8 7 6 6 4 3 3 4 5 5 6 7 7 7 7 8 9 9 8 8 7 7 8 9 8 8 8 8 9 6 1 0 4 3 4 2 0 3 6 5 5 3 3 3 3 6 7 5 6 7
12 11 12 12 12 12 10 11 11 11 11 15 21 21 21 22 19 13 10 10 10 11 11 12 10 10 9 9 8 7 6 6 6 4 2 4 5 5 5 6 7 6 4 2 5 6 6 6 7 8 8 9 9 9 8 8 9 7 7 8 10 10 9 7 5 6 2 4 5 5 4 1 2 3 5 3 3 3 3 4 5 6 5 5 6
12 12 12 13 13 12 12 13 12 12 11 17 21 22 21 22 22 17 10 11 11 11 12 12 12 10 9 9 8 7 6 8 6 5 2 0 3 4 5 6 6 8 8 7 5 3 6 6 7 8 9 8 8 10 10 10 8 9 8 8 8 8 6 6 5 3 0 1 4 4 4 2 2 2 6 3 3 1 0 5 6 6 4 4 6
12 12 12 12 12 12 12 12 13 12 12 16 21 22 22 22 22 19 11 12 11 11 11 12 12 11 10 8 8 8 8 7 5 6 5 2 1 1 2 3 4 6 7 8 7 6 3 6 7 9 7 6 9 8 9 9 11 11 11 9 9 9 7 5 5 5 2 1 5 4 3 2 1 4 4 1 2 2 1 4 7 5 3 3 6
13 13 13 13 12 12 12 12 12 13 11 20 22 23 22 23 24 20 12 11 11 11 11 11 12 12 11 9 9 9 9 8 6 5 4 4 2 1 1 2 3 4 4 5 5 4 3 2 5 5 4 5 5 6 8 8 8 5 5 7 8 8 10 9 7 4 4 4 2 1 4 3 1 3 0 2 2 2 1 2 5 5 2 3 6
11 11 12 12 13 14 13 13 13 14 13 20 22 24 24 23 25 14 11 11 11 12 12 11 11 11 11 9 8 8 8 9 8 8 7 4 3 3 3 2 2 3 4 4 3 2 2 1 2 4 4 4 7 7 6 7 7 7 9 9 10 10 9 6 5 2 3 3 4 1 4 2 1 3 1 1 2 2 2 2 7 6 2 8 9
12 12 12 12 12 13 15 14 14 15 14 16 21 24 24 25 19 11 11 10 11 11 12 11 10 11 11 10 9 9 8 8 9 11 10 7 4 4 4 3 3 2 3 4 7 9 8 10 11 12 13 14 14 13 12 12 10 10 10 9 8 9 9 7 3 3 2 1 3 3 2 3 1 2 1 1 1 1 5 5 6 8 10 9 9
14 13 12 13 12 12 14 15 13 15 16 17 23 24 24 23 20 14 11 11 12 11 11 11 10 11 12 16 12 8 8 8 12 14 11 8 6 6 5 5 4 4 2 1 3 5 11 12 13 13 13 14 15 15 13 11 9 8 12 12 11 9 8 9 7 4 3 2 1 3 3 3 2 3 2 3 3 1 4 2 3 3 6 7 10
12 13 12 13 14 12 12 14 18 18 16 17 21 23 25 23 18 12 12 11 12 11 10 11 11 10 11 12 15 13 10 10 15 14 13 10 8 7 6 5 6 6 6 5 3 2 1 4 4 5 7 7 7 8 8 13 11 7 4 5 9 9 9 7 8 7 3 1 1 3 4 0 4 3 2 1 1 1 2 3 2 3 4 4 5
Wind_Direction
168 174 178 180 175 174 176 180 173 172 171 200 175 175 185 188 188 188 185 185 183 188 188 191 191 189 191 213 216 222 240 246 244 244 256 245 169 193 188 185 186 187 193 204 218 228 237 241 242 244 246 249 254 262 263 261 259 262 264 258 253 249 249 248 236 225 219 223 224 197 215 217 198 176 166 150 132 120 109 99 87 62 44 42 39
169 171 174 181 167 177 179 192 176 174 173 196 181 174 180 189 178 175 170 177 178 181 184 197 195 191 191 190 190 204 213 217 230 247 255 248 222 180 196 193 191 192 190 196 208 221 231 241 249 252 253 255 259 262 265 266 266 266 256 249 246 246 247 249 249 221 224 228 215 204 209 207 186 171 159 146 137 129 119 118 92 64 55 45 40
171 169 177 189 171 175 180 190 178 183 179 192 176 178 176 185 175 167 166 160 168 168 169 178 184 193 194 188 200 201 204 199 205 216 229 235 234 174 196 197 194 195 195 197 207 219 226 236 244 250 254 257 259 262 265 265 263 257 249 243 244 245 243 240 241 239 231 225 232 212 206 184 176 166 155 147 144 139 142 127 91 71 57 53 53
179 177 180 191 176 174 178 180 178 188 178 189 172 179 181 185 169 167 166 160 164 170 172 165 187 197 202 219 217 234 246 243 222 219 225 227 220 208 171 194 201 197 198 200 209 215 224 231 237 243 249 255 258 260 262 262 257 250 243 242 243 244 245 240 235 234 227 234 228 200 190 177 172 161 157 155 151 151 146 121 97 83 75 70 60
195 182 179 187 180 175 183 182 176 181 171 185 168 182 189 189 177 169 170 164 167 176 170 180 182 196 201 212 201 217 232 248 256 250 249 241 229 222 165 189 196 208 204 206 209 212 222 228 231 236 243 249 253 255 255 253 252 247 245 246 246 244 242 237 234 226 236 238 216 199 169 173 168 163 162 158 154 150 132 116 104 96 87 70 68
197 188 183 181 184 179 189 189 183 179 169 176 178 175 183 182 176 169 175 171 177 175 173 184 190 193 194 194 191 202 206 226 234 235 236 244 240 237 222 175 192 197 210 217 214 217 223 225 228 232 237 243 247 249 251 253 249 249 249 249 248 245 242 239 235 232 227 220 211 181 166 172 170 167 165 160 151 139 128 121 113 104 90 77 56
282 199 188 181 186 186 184 184 179 179 174 174 171 169 168 180 164 173 180 181 176 185 173 178 182 194 211 195 190 194 195 205 214 222 221 224 228 233 228 239 198 184 203 197 219 220 221 223 228 233 237 240 243 247 251 251 248 248 251 246 244 242 239 237 234 235 203 206 190 170 174 172 171 172 164 155 149 139 135 126 118 111 102 81 72
244 239 255 246 190 188 186 178 180 185 178 178 170 177 183 183 182 170 169 186 183 219 211 195 189 187 194 201 201 194 200 210 205 201 205 207 219 222 227 224 234 217 182 186 202 218 225 228 225 229 234 237 235 241 254 268 272 276 266 263 255 244 241 237 234 230 200 197 177 170 176 176 176 172 161 153 145 141 133 125 122 115 100 90 81
309 282 176 248 241 192 183 178 183 173 178 176 181 182 186 189 194 180 169 171 175 195 227 232 233 227 196 195 196 195 203 207 201 192 192 199 212 209 213 221 225 214 220 189 175 180 215 217 224 226 232 230 223 219 228 245 260 265 267 266 256 249 243 239 233 225 212 187 179 175 174 180 176 170 162 151 152 140 133 131 119 107 99 92 77
353 293 296 223 282 293 223 197 163 168 174 167 182 178 183 187 190 185 172 164 175 178 193 206 221 234 252 159 205 180 189 216 212 199 186 202 201 204 204 203 203 200 202 206 215 226 175 209 215 220 226 228 221 218 219 226 240 253 257 257 253 247 246 241 236 229 207 190 185 180 172 176 171 168 160 156 150 141 141 130 115 104 101 87 74
20 352 259 294 276 277 295 331 80 132 245 230 228 198 191 179 179 181 178 175 169 175 183 197 207 217 221 228 310 290 268 282 321 326 245 196 200 202 182 194 187 197 199 194 207 210 195 175 190 204 227 230 224 217 220 226 232 237 242 246 248 246 243 241 235 229 203 194 189 181 173 172 169 169 159 155 145 146 141 128 121 113 97 85 78
23 13 4 68 324 315 295 338 310 289 269 196 197 203 215 201 214 198 184 176 165 157 178 191 200 199 200 223 247 250 274 295 294 275 278 270 225 180 179 182 163 158 173 196 200 211 215 178 175 186 199 230 216 212 219 219 225 231 236 239 241 242 241 237 239 228 198 196 191 177 174 169 170 165 160 154 151 148 143 131 115 106 98 89 89
26 1 24 42 55 25 19 10 345 306 253 228 218 217 211 210 197 186 188 192 199 187 192 177 176 188 174 193 220 246 252 241 244 248 249 241 243 222 188 156 180 139 4 85 77 54 47 29 29 46 65 102 169 238 256 261 250 242 237 239 244 245 243 243 248 260 230 203 184 174 167 167 164 160 157 155 149 139 129 120 114 103 95 96 87
29 12 24 31 38 28 23 348 354 357 358 329 246 245 264 235 209 207 194 189 201 192 200 174 193 192 180 208 213 212 219 224 228 236 239 237 358 84 62 79 74 48 45 64 57 50 41 32 39 37 31 35 46 53 227 241 248 258 267 259 247 247 248 247 232 217 213 185 187 174 162 158 161 153 154 151 145 137 127 118 111 101 102 97 84
25 20 23 34 40 25 19 3 340 354 13 28 20 354 252 230 215 199 195 199 196 190 195 191 188 180 168 134 202 200 209 225 242 39 30 37 23 45 33 69 62 49 58 69 54 45 43 31 32 31 25 27 13 5 342 347 343 325 295 255 255 255 259 253 235 225 193 207 187 158 150 148 157 152 140 145 137 126 123 115 107 106 103 96 95
26 21 21 31 41 31 10 11 356 1 11 19 17 10 359 323 268 229 174 202 201 202 191 191 173 150 194 204 182 170 201 203 178 73 39 40 36 30 32 64 65 44 49 69 62 58 49 39 32 23 19 14 8 5 359 337 331 324 308 264 246 249 252 262 227 181 143 125 129 136 135 128 120 122 133 139 128 123 117 111 112 112 107 104 102
21 23 20 24 33 31 18 3 12 6 9 21 23 4 348 349 0 350 307 221 220 228 224 193 190 181 159 141 209 213 216 157 154 105 59 65 37 40 23 48 63 62 69 68 61 49 46 41 38 24 16 14 7 355 350 345 332 303 284 243 238 238 236 209 174 146 136 135 130 125 127 134 140 140 146 133 123 121 117 117 119 117 114 112 109
19 19 19 17 29 26 20 10 15 11 8 12 16 7 356 357 355 348 351 340 286 220 251 282 224 194 193 181 158 176 195 163 155 191 43 74 93 53 36 41 60 74 72 75 71 69 45 60 47 44 27 18 1 347 352 338 318 288 265 215 214 213 200 179 160 142 139 137 136 142 147 144 141 140 133 128 122 121 122 123 123 120 119 115 112
15 17 13 12 26 25 22 13 13 13 7 11 13 5 356 353 346 354 348 345 349 310 270 252 234 243 228 236 250 219 144 143 197 98 160 154 59 60 59 38 34 45 63 65 75 87 70 65 69 68 48 26 359 355 7 342 319 307 266 209 179 162 148 141 142 144 140 141 140 137 136 136 137 130 127 125 129 130 133 127 125 123 119 116 112
13 14 10 5 16 21 17 18 19 15 9 13 3 356 354 348 351 345 346 355 348 344 334 313 256 252 240 232 231 234 185 210 180 172 151 160 177 69 66 57 59 48 40 50 48 69 82 55 67 83 88 32 2 22 8 346 329 322 350 163 143 139 137 136 131 132 133 133 132 133 134 135 131 133 135 140 142 138 139 136 126 124 119 115 111
14 12 8 4 10 14 13 13 13 9 9 7 4 357 355 347 349 350 350 344 353 338 324 323 330 309 306 255 228 216 222 222 211 173 148 139 149 172 153 107 88 71 55 63 48 36 51 60 43 49 34 9 13 27 12 360 341 329 10 74 112 123 129 131 129 124 121 121 132 137 138 136 139 137 140 138 137 143 142 130 128 125 120 113 108
7 8 8 4 5 9 10 10 10 5 3 359 356 357 353 348 342 341 341 345 345 344 333 328 324 318 302 296 323 323 246 222 219 207 202 153 157 190 177 164 170 140 86 77 70 58 49 50 57 43 27 35 29 356 10 17 351 8 24 75 103 113 126 129 130 134 134 135 136 136 137 135 135 141 145 147 147 142 130 129 129 128 119 114 109
359 2 7 1 0 5 6 3 2 4 1 358 355 348 345 343 338 340 348 347 343 338 330 327 331 332 333 331 317 306 296 260 226 209 165 131 93 128 138 176 153 136 136 111 99 80 62 51 71 41 28 31 24 10 19 13 359 8 30 45 80 141 139 136 136 137 139 138 134 135 137 136 138 143 147 142 139 133 131 130 129 125 118 114 109
358 359 3 358 357 359 360 358 0 358 359 352 346 344 341 339 342 344 345 345 346 345 331 325 335 327 330 331 331 348 341 1 343 303 210 196 165 160 153 128 94 89 136 125 97 108 107 73 49 53 40 33 19 7 11 15 10 15 23 35 39 64 134 133 139 141 144 143 140 138 135 143 142 141 136 140 140 136 136 134 129 125 118 112 107
358 356 356 352 352 355 356 355 355 352 347 348 344 344 343 343 340 342 344 349 350 344 335 332 331 330 328 322 325 323 325 332 334 312 321 60 117 114 83 115 131 133 157 163 166 137 154 120 80 68 50 40 22 16 8 14 10 12 19 28 28 34 38 126 146 144 140 141 140 142 140 136 138 143 140 140 138 137 137 136 134 128 120 109 106
348 353 348 344 348 351 348 349 349 345 346 345 346 344 341 341 336 340 344 340 343 343 331 326 327 326 325 322 321 300 304 356 353 339 346 119 131 140 136 72 84 117 107 188 181 156 191 163 151 118 98 76 40 25 21 15 11 7 19 34 29 25 35 27 143 149 146 143 149 147 149 150 144 145 147 152 147 144 142 142 138 132 124 118 114
347 346 343 343 343 346 348 350 349 349 346 345 345 342 341 336 336 340 342 339 342 341 339 335 335 332 328 324 312 308 302 309 9 353 332 239 153 152 143 132 88 110 157 184 220 248 157 156 160 154 141 120 97 58 30 20 13 8 18 34 34 24 26 29 6 167 152 154 148 148 148 145 147 152 152 146 145 143 145 141 138 136 133 117 111
346 345 343 342 344 344 344 347 346 349 349 345 346 345 344 341 338 348 343 347 346 343 339 336 333 328 325 326 319 300 284 266 248 183 199 208 152 160 158 151 144 154 181 203 210 244 157 153 169 167 145 127 121 106 104 46 43 6 33 35 30 22 17 26 29 22 164 159 154 151 152 153 156 154 149 150 150 149 150 148 141 136 126 113 107
347 348 342 342 345 346 345 345 347 348 349 347 347 348 347 344 350 346 347 349 346 340 335 339 332 327 327 325 318 313 300 273 238 219 163 148 170 177 180 178 172 130 168 209 227 205 198 178 160 177 140 135 118 122 104 76 20 43 72 57 48 47 22 31 32 35 30 169 159 162 156 156 161 156 158 159 155 154 154 153 150 140 132 118 104
346 345 342 341 345 348 347 344 343 346 348 346 347 346 348 351 351 351 347 345 341 336 336 335 334 330 324 322 322 313 315 311 279 237 202 177 174 188 201 216 187 171 173 180 236 175 153 182 142 151 150 138 130 105 94 87 360 75 67 76 69 51 44 33 37 40 45 39 167 168 162 170 161 161 159 159 161 162 162 162 161 144 126 117 91
348 350 346 344 347 347 345 344 345 345 345 345 346 345 345 350 352 349 348 347 345 340 337 339 330 331 331 330 332 325 320 308 298 278 245 209 194 192 216 217 229 231 188 170 191 273 137 178 153 120 140 145 139 124 111 89 10 74 92 98 82 71 58 37 34 43 46 52 45 63 170 175 174 172 162 161 164 169 170 166 161 145 122 102 81
347 347 346 344 346 346 345 343 346 345 345 344 345 343 343 350 352 348 347 346 345 345 341 338 336 336 340 338 336 330 321 316 311 296 277 257 229 209 208 213 235 270 298 205 210 195 352 193 141 143 148 146 145 141 132 133 92 108 116 97 114 85 67 52 41 43 50 55 52 55 50 58 167 183 169 163 167 170 172 166 145 113 115 85 76
346 345 345 345 346 346 343 343 344 344 344 345 343 340 342 350 352 347 343 345 346 344 343 342 344 346 344 337 332 331 328 329 321 319 308 287 267 241 213 205 220 199 228 242 220 139 344 30 122 150 147 140 147 149 144 148 141 139 133 182 112 94 78 67 56 52 57 60 64 62 62 63 61 74 110 118 120 116 105 91 96 116 96 80 73
347 342 342 344 345 343 343 341 342 341 341 345 342 339 339 352 354 351 342 342 345 346 347 343 343 346 343 337 334 332 338 332 320 313 308 300 290 264 245 221 218 205 199 181 164 161 168 106 110 123 141 156 129 162 156 157 155 143 143 95 60 97 91 76 62 64 67 74 74 72 75 72 71 72 81 82 85 80 83 105 120 101 89 79 71
344 343 340 341 341 341 341 342 341 340 342 343 341 337 337 356 356 348 343 340 340 343 345 342 342 343 343 342 337 339 339 333 326 315 311 303 294 285 274 258 243 222 198 195 163 171 160 164 152 153 170 165 155 162 153 154 147 144 128 97 85 74 85 80 79 61 76 82 79 81 81 82 84 86 88 92 98 116 125 114 105 98 83 74 68
342 341 340 341 342 342 340 342 340 339 340 342 340 336 337 357 355 346 344 342 337 335 335 336 339 344 345 340 339 339 336 331 326 323 320 315 302 288 274 271 269 253 214 203 192 145 154 146 179 167 164 160 142 143 140 140 145 129 121 106 74 83 87 90 82 70 75 78 84 87 88 90 96 100 104 107 109 110 109 107 98 87 77 71 68
342 339 340 343 340 341 342 339 336 339 338 339 338 334 339 357 352 344 340 339 335 331 330 333 333 334 339 340 337 338 338 334 328 330 331 326 321 305 280 271 254 245 202 191 175 146 150 162 143 158 148 133 110 127 146 143 134 115 122 118 112 93 82 84 78 84 84 83 85 88 90 94 98 103 109 115 117 116 111 105 98 86 79 75 69
337 338 338 341 340 336 337 334 332 333 334 334 334 330 346 350 343 339 337 334 331 328 326 328 330 331 331 335 338 340 341 337 329 327 329 327 323 313 300 300 285 192 173 154 139 137 149 149 151 142 165 153 137 151 160 147 140 134 117 112 105 114 124 107 90 80 87 102 101 93 93 95 102 111 120 125 124 118 112 106 97 86 79 74 68
333 336 340 336 336 333 331 329 333 332 330 330 329 333 349 344 339 337 334 332 330 328 324 323 325 324 323 322 330 343 341 336 328 325 324 320 317 310 310 311 337 133 125 140 140 136 137 134 111 133 140 138 146 153 162 139 144 152 145 133 125 149 131 141 129 112 118 112 103 104 125 121 109 114 129 129 126 119 111 104 95 84 78 76 70
333 337 336 333 329 332 326 327 329 328 325 327 324 337 340 335 335 334 332 328 327 325 321 319 319 319 320 324 323 333 341 328 322 315 317 316 317 307 306 315 316 134 147 136 136 136 138 142 147 156 158 147 136 107 122 138 137 164 186 150 153 157 154 118 114 146 161 137 131 125 125 132 134 128 128 131 131 124 112 101 98 86 83 81 73
329 332 329 330 331 326 324 326 325 325 325 324 327 337 332 331 332 331 328 325 323 321 320 318 317 322 327 330 328 322 315 312 308 307 307 306 310 308 303 292 279 224 149 149 147 135 131 134 121 125 141 157 166 159 167 182 192 183 163 143 139 135 134 116 59 52 92 150 155 133 153 157 143 151 142 139 155 146 130 118 98 93 85 83 76
329 325 327 329 325 324 327 327 323 325 325 322 324 325 327 327 328 325 321 320 319 317 316 314 316 319 327 331 325 320 317 314 317 329 326 321 311 291 299 302 261 224 199 173 167 168 157 159 166 161 165 182 182 187 187 192 161 134 157 158 149 149 125 104 58 353 13 104 132 130 144 154 154 170 159 135 139 122 131 115 140 124 89 82 75
326 325 328 325 323 327 325 323 324 323 322 320 319 321 323 326 325 320 319 318 315 312 311 310 311 317 322 323 323 317 314 313 317 332 341 332 326 327 320 327 329 261 214 188 190 180 174 178 167 172 184 183 190 185 188 173 177 175 171 163 146 152 160 158 164 76 160 134 138 120 127 143 111 137 143 135 130 92 107 147 148 132 101 75 65
326 329 326 322 324 320 318 322 320 319 317 317 319 318 319 321 322 319 317 314 314 310 308 305 304 308 311 315 314 312 309 306 305 309 348 350 341 345 2 5 0 2 359 246 187 184 186 170 175 192 182 193 183 178 179 175 178 169 171 164 165 168 166 172 154 158 164 122 153 131 152 160 89 118 127 143 126 155 161 169 179 152 110 70 45
326 325 322 322 319 318 319 318 317 317 315 317 317 316 316 318 319 320 315 315 311 306 303 302 300 301 304 306 308 306 307 304 302 299 294 3 353 6 9 5 8 2 356 0 345 223 188 177 188 190 198 182 175 193 185 177 165 167 168 166 170 167 168 152 128 118 204 132 119 134 138 192 119 143 120 132 124 125 263 180 174 164 122 68 27
325 320 318 316 316 317 315 314 312 311 310 312 314 314 315 315 317 317 312 309 304 297 298 296 295 293 292 296 300 302 305 301 286 288 284 260 256 353 1 8 356 345 346 345 337 336 271 198 185 198 200 181 195 183 173 162 168 175 175 173 165 159 147 117 95 98 52 53 151 140 102 170 117 105 131 140 84 349 289 195 175 167 151 13 1
322 321 320 319 316 314 313 310 307 306 306 312 315 313 313 313 313 313 305 304 298 295 292 291 292 292 288 286 285 288 296 295 279 267 268 261 245 157 89 26 5 352 345 334 327 316 299 219 197 179 170 171 158 148 158 167 172 163 168 158 147 124 110 110 92 95 66 45 55 95 136 137 73 89 4 62 357 353 307 332 170 155 131 340 356
314 313 314 313 311 311 310 309 305 300 299 306 311 311 309 310 309 307 302 297 295 292 291 289 287 286 283 277 279 282 287 290 283 268 256 248 236 218 161 119 66 24 20 2 3 348 5 41 109 128 133 122 124 129 133 133 120 111 97 94 101 120 125 120 118 114 84 24 24 114 117 117 33 108 281 26 39 356 338 14 133 119 48 2 358
315 314 309 308 306 307 307 305 303 299 298 303 305 306 307 307 308 300 297 294 291 291 287 287 284 283 281 275 268 270 274 280 287 285 271 242 235 231 203 155 121 94 52 12 47 66 85 94 105 112 115 114 113 114 118 126 134 132 126 124 151 153 139 133 127 127 113 70 356 17 103 113 10 99 264 313 351 353 42 63 41 33 16 4 3
312 308 307 305 303 300 299 300 300 298 297 300 303 303 304 303 303 300 297 293 289 287 288 285 285 283 279 274 265 260 265 268 282 282 269 248 239 235 216 186 158 151 130 39 26 40 60 71 75 82 88 96 98 95 95 103 124 152 156 167 171 157 159 156 140 129 130 88 338 330 92 125 118 358 68 292 45 77 90 56 54 6 9 2 1
298 302 307 304 301 299 296 295 296 295 294 295 300 301 300 300 300 298 296 292 289 286 288 287 282 280 282 277 266 255 252 262 271 273 263 243 240 236 219 210 198 185 176 151 129 110 8 63 47 45 50 47 47 58 78 80 73 60 57 132 160 167 163 153 132 122 88 271 52 327 106 300 88 318 75 69 36 291 109 60 27 2 3 7 2